Weather in Narbonne

France     43°10′49″N   3°00′04″E
temp.,
°C
wind,
m/s
gust,
m/s
humid.,
%
clouds,
%
prec.,
mm/h
press.,
hPa
HPBL,
m
16 may, sun
sun1623:00+14w3589100 0.4 1012186
02:00+14nw1190100 0.6 101138
05:00+14ne1192100 0.8 101046
08:00+14s008867 0.9 101077
11:00+17wsw237893 0.0 1010195
14:00+19w51074100 0.3 10111194
17:00+17wnw91476100 0.2 10111027
20:00+14wnw81767100 0.6 10121255
17 may, mon
mon1723:00+13wnw9186736 0.1 10151278
02:00+12wnw815696 0.1 10151116
05:00+12wnw7146893 0.0 10161139
08:00+12wnw61468100 0.0 10181348
11:00+16wnw81350100 0.0 10191599
14:00+19wnw81137100 0.0 10182040
17:00+20wnw8113714 0.0 10182286
20:00+17nw611500 0.0 10181280
18 may, tue
tue1823:00+13wnw366161 0.0 1020286
02:00+11w367113 0.0 1020141
05:00+9wnw367912 0.0 1020132
08:00+11w357256 0.0 1020195
11:00+17wnw344298 0.0 10191053
14:00+20nw543638 0.0 10181851
17:00+14nw61060100 0.0 1020674
20:00+14wnw6116499 0.0 1020672
19 may, wed
wed1923:00+11wnw5127067 0.0 1021413
02:00+10w510792 0.0 1022353
05:00+9w5118210 0.0 1022343
08:00+11wnw612764 0.0 1022668
11:00+15wnw913577 0.0 10221318
14:00+18wnw9134626 0.1 10212012
17:00+17nw1117462 0.0 10201934
20:00+15wnw917550 0.0 10221648
20 may, thu
thu2023:00+13wnw1018580 0.0 10241245
02:00+11wnw917710 0.0 10251126
05:00+11wnw8157437 0.0 10251090
08:00+12wnw8146877 0.0 10271248
11:00+15wnw812492 0.0 10281431
14:00+19wnw893856 0.0 10271862
17:00+21nw783185 0.0 10241906
20:00+19wnw584112 0.0 1023451